This is the latest recevied weather packets stored in our database for station/object N4ZIQ. If no packets are shown the sender has not sent any weather packets the latest 10 day(s).
| Time | Temp. | Humidity | Pressure | Rain* | Wind** | Luminosity | Snow |
|---|---|---|---|---|---|---|---|
| 1777734055 | 27.22° C | 73% | 1012.3 hPa | 0 mm | - | 281 W/m² | - |
| 1777733747 | 26.67° C | 74% | 1012.2 hPa | 0 mm | - | 494 W/m² | - |
| 1777733448 | 26.11° C | 74% | 1012.2 hPa | 0 mm | - | 255 W/m² | - |
| 1777733168 | 26.11° C | 74% | 1012.1 hPa | 0 mm | - | 255 W/m² | - |
| 1777732846 | 26.11° C | 74% | 1012.1 hPa | 0 mm | - | 251 W/m² | - |
| 1777732544 | 26.11° C | 73% | 1012.2 hPa | 0 mm | - | 183 W/m² | - |
| 1777732280 | 26.11° C | 73% | 1012.1 hPa | 0 mm | - | 236 W/m² | - |
| 1777731945 | 26.11° C | 72% | 1012.1 hPa | 0 mm | - | 202 W/m² | - |
| 1777731645 | 26.67° C | 73% | 1012 hPa | 0 mm | - | 295 W/m² | - |
| 1777731356 | 26.11° C | 74% | 1012 hPa | 0 mm | - | 209 W/m² | - |
| 1777731044 | 25.56° C | 74% | 1011.9 hPa | 0 mm | - | 267 W/m² | - |
| 1777730745 | 25.56° C | 73% | 1011.8 hPa | 0 mm | - | 186 W/m² | - |
| 1777730479 | 25.56° C | 73% | 1011.8 hPa | 0 mm | - | 213 W/m² | - |
| 1777730145 | 25.56° C | 73% | 1011.8 hPa | 0 mm | - | 255 W/m² | - |
| 1777729845 | 25.56° C | 73% | 1011.8 hPa | 0 mm | - | 202 W/m² | - |
| 1777729553 | 25.56° C | 73% | 1011.7 hPa | 0 mm | - | 100 W/m² | - |
| 1777729244 | 25.56° C | 74% | 1011.7 hPa | 0 mm | - | 135 W/m² | - |
| 1777728945 | 26.11° C | 76% | 1011.4 hPa | 0 mm | - | 237 W/m² | - |
| 1777728650 | 25.56° C | 77% | 1011.3 hPa | 0 mm | - | 469 W/m² | - |
| 1777728344 | 25.56° C | 77% | 1011.3 hPa | 0 mm | - | 490 W/m² | - |
| 1777728044 | 25° C | 81% | 1011.3 hPa | 0 mm | - | 448 W/m² | - |
| 1777727751 | 24.44° C | 83% | 1011.2 hPa | 0 mm | - | 271 W/m² | - |
| 1777727444 | 23.89° C | 83% | 1011.3 hPa | 0 mm | - | 241 W/m² | - |
| 1777727145 | 23.89° C | 83% | 1011.3 hPa | 0 mm | - | 399 W/m² | - |
| 1777726862 | 23.33° C | 83% | 1011.3 hPa | 0 mm | - | 188 W/m² | - |
* Rain latest hour (hover to see other rain measurements)
** Current wind speed in m/s (hover to see current wind gust speed)